Location: North Smoke Tower Site
(30.5430°N, 82.3390°W)
Time: 13:31:04
(UTC-04:00)

Cosmos 1980 Rocket - Visible Passes

Search period start: 02 September 2014 00:00
Search period end: 12 September 2014 00:00
Orbit: 828 x 852 km, 71.0° (Epoch: 02 September)

Date Brightness Start Highest point End Pass type
(mag) Time Alt. Az. Time Alt. Az. Time Alt. Az.
02 Sep 4.8 03:10:02 14° NNE 03:10:02 14° NNE 03:10:50 10° NNE visible
02 Sep 4.5 04:51:49 12° NW 04:51:49 12° NW 04:52:32 10° NNW visible
03 Sep 5.1 02:55:00 11° NNE 02:55:00 11° NNE 02:55:14 10° NNE visible
03 Sep 4.6 04:36:47 11° NNW 04:36:47 11° NNW 04:37:12 10° NNW visible
04 Sep 4.7 04:21:43 10° NNW 04:21:43 10° NNW 04:21:50 10° NNW visible
